Showing default

IRIDIUM 111, 41926

Orbit data source: Space-Track

IRIDIUM 111, 41926 is a payload satellite owned by Iridium (US) in LEO that was launched on Sat, 14 Jan 2017 UTC via an FALCON 9 launch vehicle from the Air Force Western Test Range (AFWTR). Payload-class satellites include a variety of spacecraft equipped with specific instruments for various scientific and technological missions. These include communications satellites like Starlink; space stations such as the ISS; scientific satellites like the Hubble; Earth observation satellites from companies like Planet Labs, Umbra, and HawkEye 360; GPS; miniature CubeSats for education and research; and military/defense satellites.

Loading next visibility...
Identifier
41926, 2017-003K
Orbit
LEO
Country
Flag of USUS
Related business
Manufacturer
OATK SSG Gilbert
Mission
Operational Commercial Communications
Bus & Motor
ELITEBUS, Unknown motor
Mass
860 kg wet, 700 kg dry
Launch date (UTC)
2017-01-14 (9 years ago)
Launch vehicle
FALCON 9
Launch site
Air Force Western Test Range (AFWTR)
Object type
Payload
Rocket body
Debris
Shape & HBR
Trap Box + 2 Pan, 4.8 m
Radar Cross Section
10.154 m², Large (>1 m²)

Expand to show TLE details & history
Last TLE update: 9 hours ago

TLE from 9 hours ago
0 IRIDIUM 111
1 41926U 17003K   26035.35137039  .00000371  00000-0  12544-3 0  9990
2 41926  86.4019 143.9027 0002163  96.0509 264.0934 14.34218425474219
Epoch: 2026-02-04T08:25Z
TLE epoch observation values (Epoch: 2026-02-04T08:25:58.401Z)
Latitude
0.00003°
Longitude
-117.10983°
Altitude
780.876 km
Speed
7.463 km/s
True Right ascension
09h 35m 36s
True Declination
0° 00' 00"
Sunlit
Object was in full shadow at epoch
Visualization orbit readout
Latitude
Unknown
Longitude
Unknown
Altitude
Unknown
Speed
Unknown
Apparent Right ascension
Unknown
Apparent Declination
Unknown
Sunlit
N/A
Visualization observer readout
Local Sidereal Time
19:04:56
Azimuth
Unknown
Elevation
Unknown
Doppler factor
Unknown
Orbital elements
Apogee altitude
776.176 km
Perigee altitude
773.082 km
Semi-major axis
7,152.766 km
Eccentricity
0.00022
Inclination
86.4019°
RAAN
143.9027°
Arg. of periapsis
96.0509°
True anomaly
264.06875°
Mean anomaly
264.0934°
Eccentric anomaly
264.08107°
Mean motion
3.58783 °/min
Orbital period
100.34 mins
BSTAR
0.00012544
Loading maneuver chart data...
Computing Atmospheric mass density...
Loading historical data...
Loading historical data...
Loading historical data...
Loading historical data...
Loading historical data...
Loading historical data...
Loading historical data...

Documentation

Showing up to 5 results
|